QPF
0.00 0.00 0.00 0.00 0.00 0.00 0.00 0.00 0.00 0.00 0.00 0.00 0.00 0.00 0.00 0.00 0.00 0.00 0.00 0.00 0.00 0.00 0.00 0.00 0.00 0.00 0.00 0.00 0.00 0.00 0.00 0.00 0.00 0.00 0.00 0.00 0.00 0.00 0.00 0.00 0.00 0.02 0.00 0.00 0.00 0.00 0.00 0.00 0.00
0.00 0.00 0.00 0.00 0.00 0.00 0.00 0.00 0.00 0.00 0.00 0.00 0.00 0.00 0.00 0.00 0.00 0.00 0.00 0.00 0.00 0.00 0.00 0.00 0.00 0.00 0.00 0.00 0.00 0.00 0.00 0.00 0.00 0.00 0.00 0.00 0.00 0.00 0.00 0.00 0.02 0.03 0.01 0.01 0.00 0.01 0.00 0.02 0.02
0.00 0.00 0.00 0.00 0.00 0.00 0.00 0.00 0.00 0.00 0.00 0.00 0.00 0.00 0.00 0.00 0.00 0.00 0.00 0.00 0.00 0.00 0.00 0.00 0.00 0.00 0.00 0.00 0.00 0.00 0.00 0.00 0.00 0.00 0.00 0.00 0.00 0.00 0.01 0.01 0.03 0.02 0.04 0.03 0.01 0.02 0.01 0.01 0.01
0.00 0.00 0.00 0.00 0.00 0.00 0.00 0.00 0.00 0.00 0.00 0.00 0.00 0.00 0.00 0.00 0.00 0.00 0.00 0.00 0.00 0.00 0.00 0.00 0.00 0.00 0.00 0.00 0.00 0.00 0.00 0.00 0.00 0.00 0.00 0.00 0.00 0.00 0.04 0.01 0.03 0.04 0.07 0.02 0.01 0.01 0.00 0.00 0.00
0.00 0.00 0.00 0.00 0.00 0.00 0.00 0.00 0.00 0.00 0.00 0.00 0.00 0.00 0.00 0.00 0.00 0.00 0.00 0.00 0.00 0.00 0.00 0.00 0.00 0.00 0.00 0.00 0.00 0.00 0.00 0.00 0.00 0.00 0.00 0.00 0.00 0.02 0.10 0.11 0.08 0.10 0.11 0.04 0.00 0.01 0.00 0.00 0.00
0.00 0.00 0.00 0.00 0.00 0.00 0.00 0.00 0.00 0.00 0.00 0.00 0.00 0.00 0.00 0.00 0.00 0.00 0.00 0.00 0.00 0.00 0.00 0.00 0.00 0.00 0.00 0.00 0.00 0.00 0.00 0.00 0.00 0.00 0.01 0.01 0.01 0.02 0.03 0.01 0.02 0.03 0.06 0.04 0.00 0.00 0.00 0.00 0.00
0.00 0.00 0.00 0.00 0.00 0.00 0.00 0.00 0.00 0.00 0.00 0.00 0.00 0.00 0.00 0.00 0.00 0.00 0.00 0.00 0.00 0.00 0.00 0.00 0.00 0.00 0.00 0.00 0.00 0.00 0.00 0.00 0.00 0.00 0.05 0.09 0.14 0.12 0.02 0.01 0.02 0.04 0.05 0.11 0.09 0.00 0.00 0.00 0.00
0.00 0.00 0.00 0.00 0.00 0.00 0.00 0.00 0.00 0.00 0.00 0.00 0.00 0.00 0.00 0.00 0.00 0.00 0.00 0.00 0.00 0.00 0.00 0.00 0.00 0.00 0.00 0.00 0.00 0.00 0.00 0.00 0.00 0.00 0.00 0.02 0.05 0.07 0.10 0.08 0.06 0.03 0.02 0.07 0.08 0.04 0.07 0.03 0.02
0.00 0.00 0.00 0.00 0.00 0.00 0.00 0.00 0.00 0.00 0.00 0.00 0.00 0.00 0.00 0.00 0.00 0.00 0.00 0.00 0.00 0.00 0.00 0.00 0.00 0.00 0.00 0.00 0.00 0.00 0.00 0.01 0.00 0.00 0.00 0.00 0.01 0.00 0.01 0.03 0.04 0.04 0.06 0.09 0.15 0.16 0.24 0.15 0.10
0.00 0.00 0.00 0.00 0.00 0.00 0.00 0.00 0.00 0.00 0.00 0.00 0.00 0.00 0.00 0.00 0.00 0.00 0.00 0.00 0.00 0.00 0.00 0.00 0.00 0.00 0.00 0.00 0.00 0.01 0.01 0.01 0.01 0.00 0.00 0.00 0.00 0.00 0.00 0.00 0.00 0.01 0.07 0.17 0.22 0.19 0.19 0.11 0.08
0.00 0.00 0.00 0.00 0.00 0.00 0.00 0.00 0.00 0.00 0.00 0.00 0.00 0.00 0.00 0.00 0.00 0.00 0.00 0.00 0.00 0.00 0.00 0.00 0.00 0.00 0.00 0.00 0.00 0.00 0.01 0.01 0.01 0.01 0.00 0.00 0.00 0.00 0.00 0.00 0.01 0.01 0.06 0.13 0.19 0.12 0.09 0.01 0.01
0.00 0.00 0.00 0.00 0.00 0.00 0.00 0.00 0.00 0.00 0.00 0.00 0.00 0.00 0.00 0.00 0.00 0.00 0.00 0.00 0.00 0.00 0.00 0.00 0.00 0.00 0.00 0.00 0.00 0.00 0.00 0.00 0.00 0.00 0.01 0.01 0.00 0.00 0.00 0.01 0.02 0.01 0.03 0.09 0.09 0.03 0.01 0.01 0.00
0.00 0.00 0.00 0.00 0.00 0.00 0.00 0.00 0.00 0.00 0.00 0.00 0.00 0.00 0.00 0.00 0.00 0.00 0.00 0.00 0.00 0.00 0.00 0.00 0.00 0.00 0.00 0.00 0.00 0.00 0.00 0.00 0.00 0.00 0.01 0.02 0.02 0.01 0.00 0.01 0.01 0.01 0.02 0.06 0.03 0.01 0.01 0.00 0.00
0.00 0.00 0.00 0.00 0.00 0.00 0.00 0.00 0.00 0.00 0.00 0.00 0.00 0.00 0.00 0.00 0.00 0.00 0.00 0.00 0.00 0.00 0.00 0.00 0.00 0.00 0.00 0.00 0.00 0.00 0.00 0.00 0.00 0.00 0.00 0.01 0.02 0.01 0.01 0.01 0.00 0.01 0.02 0.03 0.02 0.02 0.02 0.00 0.00
0.00 0.00 0.00 0.00 0.00 0.00 0.00 0.00 0.00 0.00 0.00 0.00 0.00 0.00 0.00 0.00 0.00 0.00 0.00 0.00 0.00 0.00 0.00 0.00 0.00 0.00 0.00 0.00 0.00 0.00 0.00 0.00 0.00 0.00 0.00 0.00 0.00 0.01 0.00 0.00 0.01 0.01 0.02 0.01 0.01 0.02 0.03 0.01 0.00
0.00 0.00 0.00 0.00 0.00 0.00 0.00 0.00 0.00 0.00 0.00 0.00 0.00 0.00 0.00 0.00 0.00 0.00 0.00 0.00 0.00 0.00 0.00 0.00 0.00 0.00 0.00 0.00 0.00 0.00 0.00 0.00 0.00 0.00 0.00 0.00 0.00 0.00 0.00 0.00 0.01 0.01 0.02 0.00 0.01 0.02 0.03 0.02 0.01
0.00 0.00 0.00 0.00 0.00 0.00 0.00 0.00 0.00 0.00 0.00 0.00 0.00 0.00 0.00 0.00 0.00 0.00 0.00 0.00 0.00 0.00 0.00 0.00 0.00 0.00 0.00 0.00 0.00 0.00 0.00 0.00 0.00 0.00 0.00 0.00 0.00 0.00 0.00 0.01 0.01 0.00 0.00 0.00 0.00 0.01 0.01 0.01 0.01
0.00 0.00 0.00 0.00 0.00 0.00 0.00 0.00 0.00 0.00 0.00 0.00 0.00 0.00 0.00 0.00 0.00 0.00 0.00 0.00 0.00 0.00 0.00 0.00 0.00 0.00 0.00 0.00 0.00 0.00 0.00 0.00 0.00 0.00 0.00 0.00 0.00 0.00 0.01 0.01 0.02 0.02 0.01 0.00 0.01 0.00 0.01 0.02 0.01
0.00 0.00 0.00 0.00 0.00 0.00 0.00 0.00 0.00 0.00 0.00 0.00 0.00 0.00 0.00 0.00 0.00 0.00 0.00 0.00 0.00 0.00 0.00 0.00 0.00 0.00 0.00 0.00 0.00 0.00 0.00 0.00 0.00 0.00 0.00 0.00 0.01 0.01 0.02 0.02 0.02 0.01 0.00 0.00 0.00 0.01 0.00 0.01 0.00
0.00 0.00 0.00 0.00 0.00 0.00 0.00 0.00 0.00 0.00 0.00 0.00 0.00 0.00 0.00 0.00 0.00 0.00 0.00 0.00 0.00 0.00 0.00 0.00 0.00 0.00 0.00 0.00 0.00 0.00 0.00 0.00 0.00 0.00 0.01 0.02 0.01 0.01 0.01 0.02 0.01 0.00 0.00 0.00 0.00 0.02 0.02 0.01 0.00
0.00 0.00 0.00 0.00 0.00 0.00 0.00 0.00 0.00 0.00 0.00 0.00 0.00 0.00 0.00 0.00 0.00 0.00 0.00 0.00 0.00 0.00 0.00 0.00 0.00 0.00 0.00 0.00 0.00 0.00 0.00 0.00 0.00 0.00 0.00 0.01 0.01 0.02 0.02 0.02 0.01 0.00 0.00 0.00 0.00 0.01 0.01 0.00 0.00
0.00 0.00 0.00 0.00 0.00 0.00 0.00 0.00 0.00 0.00 0.00 0.00 0.00 0.00 0.00 0.00 0.00 0.00 0.00 0.00 0.00 0.00 0.00 0.00 0.00 0.00 0.00 0.00 0.00 0.00 0.00 0.00 0.00 0.00 0.00 0.01 0.02 0.01 0.01 0.01 0.01 0.00 0.00 0.00 0.00 0.00 0.01 0.01 0.00
0.00 0.00 0.00 0.00 0.00 0.00 0.00 0.00 0.00 0.00 0.00 0.00 0.00 0.00 0.00 0.00 0.00 0.00 0.00 0.00 0.00 0.00 0.00 0.00 0.00 0.00 0.00 0.00 0.00 0.00 0.00 0.00 0.00 0.00 0.00 0.00 0.01 0.01 0.01 0.00 0.01 0.00 0.00 0.00 0.00 0.00 0.00 0.00 0.00
0.00 0.00 0.00 0.00 0.00 0.00 0.00 0.00 0.00 0.00 0.00 0.00 0.00 0.00 0.00 0.00 0.00 0.00 0.00 0.00 0.00 0.00 0.00 0.00 0.00 0.00 0.00 0.00 0.00 0.00 0.00 0.00 0.00 0.00 0.00 0.00 0.00 0.00 0.00 0.00 0.00 0.00 0.00 0.00 0.00 0.00 0.00 0.00 0.00
0.00 0.00 0.00 0.00 0.00 0.00 0.00 0.00 0.00 0.00 0.00 0.00 0.00 0.00 0.00 0.00 0.00 0.00 0.00 0.00 0.00 0.00 0.00 0.00 0.00 0.00 0.00 0.00 0.00 0.00 0.00 0.00 0.00 0.00 0.00 0.00 0.00 0.00 0.00 0.00 0.00 0.00 0.00 0.00 0.00 0.00 0.00 0.00 0.00
0.00 0.00 0.00 0.00 0.00 0.00 0.00 0.00 0.00 0.00 0.00 0.00 0.00 0.00 0.00 0.00 0.00 0.00 0.00 0.00 0.00 0.00 0.00 0.00 0.00 0.00 0.00 0.00 0.00 0.00 0.00 0.00 0.00 0.00 0.00 0.00 0.00 0.00 0.00 0.00 0.00 0.00 0.00 0.00 0.00 0.00 0.00 0.00 0.00
0.00 0.00 0.00 0.00 0.00 0.00 0.00 0.00 0.00 0.00 0.00 0.00 0.00 0.00 0.00 0.00 0.00 0.00 0.00 0.00 0.00 0.00 0.00 0.00 0.00 0.00 0.00 0.00 0.00 0.00 0.00 0.00 0.00 0.00 0.00 0.00 0.00 0.00 0.00 0.00 0.00 0.00 0.00 0.00 0.00 0.00 0.00 0.00 0.01
0.00 0.00 0.00 0.00 0.00 0.00 0.00 0.00 0.00 0.00 0.00 0.00 0.00 0.00 0.00 0.00 0.00 0.00 0.00 0.00 0.00 0.00 0.00 0.00 0.00 0.00 0.00 0.00 0.00 0.00 0.00 0.00 0.00 0.00 0.00 0.00 0.00 0.00 0.00 0.00 0.00 0.00 0.00 0.00 0.00 0.00 0.00 0.00 0.00
0.00 0.00 0.00 0.00 0.00 0.00 0.00 0.00 0.00 0.00 0.00 0.00 0.00 0.00 0.00 0.00 0.00 0.00 0.00 0.00 0.00 0.00 0.00 0.00 0.00 0.00 0.00 0.00 0.00 0.00 0.00 0.00 0.00 0.00 0.00 0.00 0.00 0.00 0.00 0.00 0.00 0.00 0.00 0.00 0.00 0.00 0.00 0.00 0.00
0.00 0.00 0.00 0.00 0.00 0.00 0.00 0.00 0.00 0.00 0.00 0.00 0.00 0.00 0.00 0.00 0.00 0.00 0.00 0.00 0.00 0.00 0.00 0.00 0.00 0.00 0.00 0.02 0.01 0.00 0.00 0.00 0.00 0.00 0.00 0.00 0.00 0.00 0.00 0.00 0.00 0.00 0.00 0.00 0.00 0.00 0.00 0.00 0.00
MSLP
1012.33 1012.38 1012.22 1012.20 1012.91 1012.58 1011.47 1010.61 1010.17 1009.46 1008.88 1008.32 1008.02 1008.05 1007.82 1007.69 1008.00 1008.36 1008.19 1008.42 1008.74 1009.07 1009.75 1010.36 1010.78 1011.06 1011.26 1011.30 1011.54 1011.74 1011.93 1012.25 1012.60 1012.90 1013.26 1013.56 1013.89 1014.16 1014.64 1014.82 1015.14 1015.33 1015.60 1016.26 1016.72 1016.78 1016.88 1017.37 1017.66
1012.22 1012.31 1012.28 1012.54 1012.40 1011.76 1010.73 1010.06 1009.45 1008.81 1008.17 1007.93 1007.80 1007.71 1007.68 1007.50 1007.87 1007.98 1008.16 1008.59 1008.82 1009.15 1009.68 1010.11 1010.73 1011.19 1011.50 1011.71 1011.76 1011.89 1012.03 1012.27 1012.60 1012.87 1013.27 1013.74 1014.13 1014.43 1014.65 1015.05 1015.31 1015.49 1015.81 1016.00 1016.60 1017.04 1017.31 1017.64 1018.04
1012.01 1012.15 1012.08 1012.25 1012.03 1010.98 1010.01 1009.35 1008.77 1008.61 1008.18 1007.66 1007.39 1007.27 1007.14 1007.12 1007.49 1007.57 1007.82 1008.41 1008.95 1009.34 1009.65 1010.10 1010.73 1011.09 1011.39 1011.89 1012.02 1011.97 1012.08 1012.34 1012.67 1012.99 1013.25 1013.55 1014.03 1014.47 1014.58 1014.94 1015.53 1015.71 1015.94 1016.22 1016.57 1017.05 1017.56 1018.00 1018.32
1012.01 1012.29 1013.04 1012.32 1011.15 1010.78 1009.90 1008.91 1008.79 1008.58 1007.97 1007.75 1007.27 1006.99 1007.02 1007.09 1007.05 1007.20 1007.82 1008.45 1008.93 1009.44 1009.63 1010.14 1010.63 1011.02 1011.25 1011.69 1012.15 1012.26 1012.30 1012.48 1012.78 1013.07 1013.41 1013.80 1014.19 1014.59 1015.04 1015.21 1015.50 1015.62 1016.09 1016.35 1016.49 1017.16 1017.60 1018.16 1018.48
1012.31 1012.35 1012.02 1011.51 1010.63 1010.12 1009.43 1008.95 1008.83 1008.33 1008.23 1007.83 1007.47 1007.00 1007.04 1007.02 1007.37 1007.55 1007.93 1008.44 1008.80 1009.41 1009.90 1010.20 1010.65 1011.10 1011.43 1011.70 1011.90 1012.20 1012.51 1012.82 1013.19 1013.35 1013.59 1013.85 1014.23 1014.62 1014.69 1015.21 1015.64 1015.80 1015.76 1016.76 1016.60 1017.11 1017.62 1018.19 1018.67
1012.05 1012.22 1011.65 1010.61 1009.64 1009.68 1009.08 1008.56 1008.44 1008.06 1007.74 1007.79 1007.73 1007.37 1007.15 1007.09 1007.37 1007.79 1008.19 1008.57 1009.06 1009.55 1010.06 1010.25 1010.88 1011.12 1011.32 1011.68 1011.91 1012.16 1012.49 1012.89 1013.28 1013.54 1013.79 1013.97 1014.31 1014.54 1014.94 1015.41 1015.55 1015.87 1016.00 1016.66 1017.03 1017.04 1017.50 1017.90 1018.52
1011.39 1011.53 1010.83 1010.41 1009.50 1009.45 1008.73 1008.26 1008.20 1007.63 1007.63 1007.54 1007.52 1007.21 1007.03 1007.37 1007.54 1007.97 1008.33 1008.92 1009.30 1009.61 1010.20 1010.39 1010.76 1011.16 1011.45 1011.63 1012.07 1012.23 1012.45 1012.85 1013.18 1013.49 1013.67 1013.86 1014.15 1014.47 1015.08 1015.32 1015.71 1015.94 1015.85 1016.61 1017.40 1017.64 1017.77 1017.72 1018.60
1011.50 1011.30 1010.66 1010.08 1009.01 1008.45 1008.33 1007.97 1007.48 1007.36 1007.24 1007.30 1007.30 1007.20 1007.24 1007.77 1008.19 1008.51 1008.64 1008.97 1009.44 1009.78 1010.18 1010.42 1010.64 1010.90 1011.24 1011.49 1011.93 1012.40 1012.56 1012.80 1013.05 1013.44 1013.68 1013.99 1014.21 1014.53 1015.03 1015.44 1015.60 1016.06 1016.30 1016.71 1017.13 1017.75 1018.08 1017.87 1018.71
1011.61 1011.09 1009.75 1009.23 1008.99 1008.23 1008.18 1007.90 1007.74 1007.67 1007.38 1007.33 1007.12 1007.29 1007.67 1008.03 1008.43 1008.86 1009.00 1009.25 1009.54 1009.87 1009.95 1010.31 1010.50 1010.68 1010.94 1011.26 1011.65 1012.26 1012.71 1012.94 1013.00 1013.37 1013.69 1014.11 1014.17 1014.53 1015.01 1015.27 1015.71 1015.99 1016.36 1016.78 1017.11 1017.81 1017.93 1018.23 1019.18
1010.68 1009.94 1009.02 1008.90 1008.56 1008.24 1008.11 1008.00 1007.91 1007.69 1007.48 1007.25 1007.27 1007.47 1007.86 1008.27 1008.27 1008.41 1008.64 1008.77 1009.08 1009.30 1009.74 1010.17 1010.50 1010.69 1010.82 1011.09 1011.40 1011.96 1012.37 1012.83 1013.07 1013.28 1013.56 1013.97 1014.26 1014.40 1014.68 1015.13 1015.62 1016.01 1016.38 1016.76 1017.44 1017.95 1018.29 1018.86 1019.54
1009.94 1008.43 1008.90 1008.53 1008.34 1008.31 1008.17 1007.98 1007.86 1007.64 1007.15 1006.89 1007.07 1007.32 1007.75 1008.10 1008.20 1008.23 1008.24 1008.28 1008.25 1008.85 1009.46 1009.96 1010.45 1010.56 1010.86 1010.92 1011.11 1011.63 1012.12 1012.56 1012.96 1013.15 1013.57 1013.94 1014.37 1014.68 1014.88 1015.26 1015.74 1016.11 1016.41 1016.82 1017.53 1018.26 1018.47 1018.89 1019.50
1009.46 1008.78 1008.70 1008.29 1008.11 1008.21 1007.92 1007.73 1007.41 1007.26 1006.89 1006.44 1006.94 1007.25 1007.49 1007.56 1007.64 1007.61 1007.63 1007.79 1008.28 1008.56 1008.87 1009.48 1010.06 1010.40 1010.68 1010.83 1010.94 1011.21 1011.75 1012.31 1012.63 1012.98 1013.24 1013.65 1014.16 1014.57 1014.90 1015.32 1015.73 1016.05 1016.11 1016.59 1017.42 1017.98 1018.46 1018.86 1019.36
1008.93 1008.61 1008.37 1008.24 1008.00 1007.92 1007.85 1007.18 1006.89 1006.82 1006.82 1006.14 1006.60 1006.86 1006.90 1006.93 1006.86 1006.91 1006.97 1007.50 1008.02 1008.30 1008.48 1008.87 1009.52 1009.80 1010.22 1010.76 1010.97 1011.01 1011.50 1012.05 1012.47 1012.68 1012.98 1013.29 1013.70 1014.21 1014.53 1015.04 1015.56 1015.64 1015.93 1016.33 1017.24 1017.85 1018.48 1018.87 1019.39
1008.10 1008.07 1007.95 1007.97 1007.79 1007.62 1007.37 1006.52 1006.80 1006.19 1006.11 1005.99 1006.09 1006.02 1005.97 1006.17 1006.01 1006.41 1006.68 1006.64 1007.20 1007.35 1007.71 1008.46 1008.86 1009.33 1009.76 1010.37 1010.79 1010.83 1011.13 1011.79 1012.24 1012.47 1012.69 1013.05 1013.31 1013.49 1014.23 1014.68 1015.15 1015.44 1015.73 1016.13 1016.82 1017.57 1018.20 1018.70 1019.31
1007.89 1007.85 1007.67 1007.42 1007.51 1007.22 1006.96 1005.60 1005.15 1005.20 1005.27 1005.38 1005.37 1005.43 1005.60 1005.54 1005.67 1005.61 1005.59 1006.00 1006.15 1006.32 1006.77 1007.60 1008.03 1008.66 1009.17 1009.94 1010.40 1010.65 1010.69 1011.29 1011.88 1012.26 1012.62 1012.90 1013.08 1013.20 1013.57 1014.30 1014.75 1015.13 1015.70 1015.94 1016.54 1017.30 1018.05 1018.98 1019.12
1007.62 1007.57 1007.05 1006.55 1006.69 1006.55 1006.62 1003.35 1004.63 1004.42 1004.72 1004.94 1005.28 1005.27 1005.32 1005.18 1005.14 1005.06 1005.06 1005.32 1005.28 1005.62 1005.93 1006.42 1007.21 1007.80 1008.42 1009.22 1009.85 1010.20 1010.35 1010.87 1011.41 1011.89 1012.34 1012.65 1012.86 1013.10 1013.36 1013.94 1014.36 1014.77 1015.40 1016.18 1015.84 1016.54 1017.87 1018.82 1019.21
1007.56 1006.76 1007.05 1006.69 1006.24 1006.03 1005.85 1003.74 1004.37 1004.57 1004.75 1004.92 1005.13 1005.15 1005.16 1004.98 1004.85 1004.64 1004.45 1004.50 1004.50 1004.67 1004.90 1005.49 1006.28 1006.82 1007.68 1008.68 1009.33 1009.90 1010.18 1010.63 1011.04 1011.44 1011.84 1012.25 1012.67 1012.96 1013.12 1013.61 1014.02 1014.43 1015.05 1015.95 1015.81 1016.59 1017.63 1018.81 1019.52
1007.45 1007.38 1007.18 1006.53 1006.21 1006.04 1005.29 1004.47 1004.72 1004.38 1004.61 1004.94 1004.88 1004.73 1004.64 1004.37 1003.95 1003.78 1004.07 1004.06 1004.00 1003.99 1004.20 1004.83 1005.53 1006.14 1007.17 1008.14 1008.97 1009.63 1009.99 1010.34 1010.61 1011.12 1011.47 1011.82 1012.24 1012.62 1012.91 1013.30 1013.75 1013.80 1014.78 1015.58 1016.33 1016.85 1017.95 1018.83 1019.39
1007.83 1007.43 1007.00 1006.85 1006.49 1006.04 1005.26 1004.66 1004.79 1004.71 1004.43 1004.50 1004.34 1004.22 1003.98 1003.67 1003.22 1003.68 1003.71 1003.61 1003.67 1003.61 1003.79 1004.18 1004.80 1005.62 1006.63 1007.48 1008.12 1008.83 1009.17 1009.75 1010.24 1010.70 1011.01 1011.40 1011.75 1012.14 1012.55 1013.01 1013.52 1013.63 1014.50 1015.19 1016.35 1016.66 1016.92 1018.95 1019.20
1007.96 1007.68 1007.14 1007.38 1006.93 1006.49 1005.38 1004.32 1004.33 1004.31 1003.69 1003.29 1003.36 1003.43 1003.31 1003.36 1003.38 1003.32 1003.28 1003.26 1003.30 1003.15 1003.36 1003.74 1004.27 1005.01 1005.65 1006.48 1007.30 1008.03 1008.64 1009.34 1009.77 1010.24 1010.50 1010.83 1011.24 1011.61 1012.17 1012.77 1013.19 1013.61 1014.22 1014.69 1015.70 1016.35 1017.37 1018.29 1018.74
1007.60 1007.41 1007.43 1007.46 1007.27 1006.61 1005.89 1003.74 1003.39 1003.26 1003.25 1002.80 1002.81 1003.00 1003.34 1003.58 1003.54 1003.21 1002.91 1002.82 1002.81 1002.79 1003.17 1003.52 1003.82 1004.53 1005.14 1005.94 1006.90 1007.79 1008.67 1009.33 1009.61 1009.98 1010.07 1010.39 1010.59 1011.21 1011.68 1012.41 1012.87 1013.43 1013.97 1014.49 1014.66 1015.71 1016.33 1017.16 1018.61
1007.16 1007.20 1007.33 1007.53 1007.76 1006.76 1006.26 1003.81 1003.32 1003.06 1002.60 1002.51 1002.29 1002.85 1003.34 1003.56 1003.48 1003.25 1002.90 1002.43 1002.29 1002.38 1002.76 1003.13 1003.73 1004.08 1004.69 1005.44 1006.20 1007.03 1007.47 1008.17 1008.60 1009.22 1009.74 1009.98 1010.20 1010.81 1011.31 1011.88 1012.46 1012.93 1013.90 1014.50 1014.81 1015.57 1016.08 1016.83 1018.03
1006.62 1006.85 1007.05 1007.20 1007.51 1007.16 1006.22 1005.51 1003.37 1003.24 1002.49 1002.28 1002.50 1003.00 1003.43 1003.59 1003.60 1003.34 1002.94 1002.39 1001.78 1001.70 1002.06 1002.62 1003.20 1003.92 1004.33 1004.91 1005.57 1006.36 1007.34 1007.91 1008.51 1009.04 1009.51 1009.76 1010.13 1010.43 1010.90 1011.51 1012.36 1012.54 1013.51 1014.03 1014.52 1015.52 1016.25 1016.67 1017.65
1006.04 1006.81 1007.22 1007.45 1007.55 1006.79 1005.80 1005.09 1003.21 1002.83 1002.44 1002.60 1003.13 1003.21 1003.44 1003.52 1003.36 1002.82 1002.31 1001.79 1001.38 1001.67 1001.92 1002.47 1002.97 1003.51 1004.08 1004.58 1005.28 1005.82 1006.87 1007.38 1008.11 1008.62 1009.19 1009.47 1009.98 1010.30 1010.63 1011.21 1011.94 1012.37 1013.31 1013.84 1014.70 1015.30 1015.71 1016.16 1017.04
1005.69 1006.37 1006.98 1007.35 1007.25 1005.56 1004.93 1004.85 1002.84 1002.84 1002.81 1002.96 1003.03 1003.15 1003.33 1003.18 1002.86 1002.44 1001.97 1001.43 1001.19 1001.24 1001.75 1002.09 1002.78 1003.19 1003.85 1004.28 1004.94 1005.48 1006.32 1006.96 1007.66 1008.36 1008.83 1009.20 1009.62 1009.99 1010.09 1010.78 1011.39 1012.02 1012.70 1013.21 1014.11 1014.77 1015.34 1016.02 1016.45
1005.16 1005.27 1005.44 1005.59 1005.71 1005.02 1005.22 1004.04 1002.78 1002.86 1003.35 1003.46 1003.46 1003.34 1003.14 1002.82 1002.71 1002.18 1001.72 1001.46 1001.07 1000.69 1001.03 1001.62 1002.26 1002.88 1003.62 1004.05 1004.71 1005.38 1005.88 1006.49 1007.13 1007.86 1008.47 1008.95 1009.13 1009.65 1009.89 1010.36 1010.94 1011.77 1012.39 1012.92 1013.74 1014.24 1014.99 1015.40 1016.15
1005.02 1005.05 1005.21 1005.29 1005.53 1005.18 1004.30 1003.70 1003.29 1003.49 1003.46 1003.56 1003.49 1003.36 1002.96 1002.57 1002.19 1001.88 1001.45 1001.10 1000.79 1000.46 1000.62 1001.19 1001.95 1002.67 1003.30 1004.31 1004.58 1005.14 1005.42 1006.03 1006.71 1007.57 1008.34 1008.82 1009.08 1009.42 1009.68 1009.98 1010.55 1011.23 1012.04 1012.55 1013.26 1013.93 1014.42 1015.16 1015.75
1004.27 1004.74 1005.28 1005.57 1005.21 1004.54 1003.52 1003.27 1002.80 1003.09 1003.08 1003.18 1002.95 1002.88 1002.90 1002.81 1002.39 1001.83 1001.24 1000.59 1000.56 1000.26 1000.16 1000.91 1001.50 1002.25 1003.00 1003.96 1004.53 1005.00 1005.05 1005.84 1006.70 1007.36 1008.09 1008.53 1008.83 1009.17 1009.49 1009.83 1010.23 1010.71 1011.30 1012.04 1012.70 1013.42 1014.47 1014.87 1015.82
1004.65 1004.57 1004.76 1004.89 1004.85 1004.11 1003.55 1002.93 1002.69 1002.66 1002.79 1002.81 1002.80 1003.02 1003.23 1003.09 1002.60 1001.94 1001.12 1000.47 1000.27 999.87 999.75 1000.39 1001.05 1001.85 1002.53 1003.33 1004.21 1004.77 1005.06 1005.83 1006.60 1007.17 1007.84 1008.24 1008.62 1009.16 1009.35 1009.52 1009.97 1010.44 1010.95 1011.59 1012.27 1012.94 1013.58 1014.37 1015.37
1004.19 1004.31 1004.52 1004.66 1004.80 1004.41 1003.96 1003.10 1002.97 1003.15 1002.92 1002.97 1003.10 1003.21 1003.36 1003.52 1003.08 1002.51 1001.50 1001.11 999.65 998.76 999.40 1000.04 1000.66 1001.44 1002.27 1002.93 1003.92 1004.52 1005.22 1005.89 1006.40 1006.99 1007.57 1008.00 1008.40 1009.20 1009.35 1009.49 1009.84 1010.33 1010.83 1011.34 1011.84 1012.62 1013.38 1014.05 1014.79
Thickness
5728 5728 5730 5727 5709 5702 5699 5711 5715 5723 5731 5743 5747 5742 5744 5746 5735 5726 5757 5758 5755 5751 5744 5738 5733 5730 5727 5726 5724 5722 5719 5715 5711 5708 5704 5702 5699 5696 5692 5691 5688 5686 5684 5679 5676 5678 5679 5678 5679
5724 5723 5721 5709 5700 5697 5709 5710 5715 5727 5741 5745 5744 5742 5740 5740 5746 5748 5750 5753 5752 5747 5742 5738 5732 5726 5722 5719 5718 5716 5714 5711 5707 5705 5700 5697 5693 5690 5688 5685 5683 5682 5679 5678 5674 5670 5670 5671 5672
5719 5718 5713 5705 5692 5703 5709 5713 5726 5728 5735 5739 5740 5748 5745 5744 5749 5751 5756 5752 5747 5743 5739 5734 5729 5725 5721 5715 5712 5712 5710 5707 5703 5699 5697 5694 5690 5686 5685 5682 5677 5676 5672 5671 5671 5668 5665 5664 5665
5711 5708 5696 5694 5701 5700 5707 5721 5720 5721 5733 5735 5739 5738 5749 5754 5753 5758 5756 5750 5745 5739 5736 5732 5727 5722 5719 5714 5708 5706 5705 5702 5698 5695 5693 5689 5685 5681 5678 5676 5674 5673 5667 5667 5666 5664 5663 5660 5659
5701 5696 5687 5689 5698 5702 5708 5714 5715 5718 5720 5726 5733 5735 5740 5750 5753 5754 5751 5746 5742 5736 5730 5728 5724 5718 5713 5710 5707 5703 5700 5695 5691 5690 5687 5684 5680 5676 5676 5672 5669 5667 5668 5658 5664 5662 5661 5657 5655
5690 5687 5679 5693 5707 5699 5710 5715 5714 5717 5723 5721 5721 5728 5738 5749 5748 5748 5746 5741 5737 5731 5724 5722 5717 5714 5711 5706 5703 5700 5696 5692 5687 5684 5680 5679 5675 5671 5669 5666 5666 5660 5662 5658 5656 5659 5657 5656 5653
5687 5681 5681 5681 5696 5694 5706 5717 5709 5716 5716 5718 5726 5723 5737 5737 5744 5743 5741 5734 5730 5726 5719 5717 5713 5709 5707 5704 5698 5696 5692 5688 5684 5680 5676 5674 5671 5667 5663 5662 5659 5657 5661 5654 5647 5650 5651 5653 5647
5681 5680 5669 5680 5698 5703 5710 5712 5718 5715 5715 5725 5728 5719 5725 5729 5732 5733 5733 5729 5724 5721 5716 5712 5709 5708 5704 5702 5697 5691 5688 5684 5680 5675 5672 5670 5666 5663 5658 5656 5653 5651 5651 5647 5646 5644 5642 5645 5641
5671 5667 5673 5688 5686 5701 5705 5703 5708 5711 5711 5713 5722 5724 5724 5723 5726 5724 5723 5718 5717 5714 5714 5710 5706 5704 5704 5700 5695 5688 5683 5679 5676 5670 5667 5663 5661 5658 5653 5651 5649 5646 5644 5640 5640 5636 5636 5635 5629
5670 5668 5679 5689 5692 5692 5695 5695 5696 5699 5701 5705 5711 5719 5717 5716 5720 5721 5719 5716 5715 5714 5712 5706 5702 5699 5698 5696 5693 5686 5680 5674 5671 5667 5661 5657 5656 5655 5652 5648 5644 5641 5638 5634 5630 5628 5626 5625 5621
5668 5677 5675 5683 5686 5686 5687 5689 5694 5691 5693 5702 5703 5710 5709 5709 5711 5715 5717 5717 5716 5715 5710 5704 5697 5694 5692 5693 5690 5684 5678 5672 5667 5663 5658 5654 5650 5648 5645 5641 5636 5634 5631 5627 5623 5619 5619 5620 5618
5657 5667 5672 5678 5681 5679 5679 5686 5687 5691 5695 5706 5705 5705 5705 5706 5707 5713 5715 5714 5710 5710 5709 5704 5696 5691 5689 5686 5686 5682 5675 5668 5663 5659 5656 5651 5646 5643 5640 5636 5632 5628 5627 5621 5618 5616 5614 5615 5612
5652 5661 5664 5669 5673 5673 5675 5681 5686 5685 5692 5705 5699 5700 5700 5702 5708 5711 5713 5712 5708 5706 5707 5704 5697 5692 5688 5682 5680 5678 5672 5665 5659 5655 5652 5648 5644 5640 5636 5631 5626 5623 5619 5615 5612 5612 5609 5611 5609
5656 5656 5660 5663 5666 5667 5669 5682 5676 5685 5697 5695 5695 5699 5702 5699 5706 5705 5705 5709 5707 5707 5706 5700 5697 5691 5688 5681 5676 5676 5670 5661 5655 5651 5648 5644 5640 5638 5632 5628 5622 5617 5614 5611 5610 5608 5607 5607 5605
5646 5643 5649 5654 5656 5660 5665 5674 5677 5690 5693 5691 5693 5693 5693 5696 5699 5703 5707 5705 5708 5710 5707 5701 5696 5691 5686 5680 5674 5672 5668 5660 5653 5649 5644 5640 5638 5636 5633 5626 5620 5613 5609 5609 5607 5605 5604 5600 5602
5634 5635 5635 5652 5652 5658 5660 5680 5681 5690 5686 5682 5681 5682 5684 5690 5695 5700 5703 5704 5710 5709 5706 5702 5697 5692 5687 5680 5673 5670 5666 5659 5652 5647 5642 5638 5634 5631 5628 5623 5618 5611 5605 5602 5609 5607 5600 5597 5599
5614 5627 5621 5634 5646 5650 5652 5675 5674 5675 5672 5671 5671 5674 5676 5683 5688 5695 5701 5704 5707 5708 5708 5703 5698 5693 5687 5679 5672 5666 5662 5657 5651 5646 5642 5636 5631 5626 5623 5618 5614 5609 5603 5598 5603 5601 5599 5593 5591
5601 5605 5615 5626 5635 5635 5644 5652 5656 5666 5662 5659 5664 5670 5674 5679 5689 5697 5695 5697 5701 5706 5707 5702 5697 5692 5684 5676 5669 5662 5658 5654 5650 5644 5639 5635 5629 5624 5619 5614 5611 5610 5602 5599 5596 5597 5593 5589 5588
5592 5599 5608 5611 5617 5622 5634 5642 5641 5648 5654 5656 5662 5665 5671 5678 5691 5688 5686 5691 5694 5699 5700 5700 5695 5688 5682 5674 5669 5662 5658 5653 5648 5643 5638 5633 5628 5622 5616 5612 5608 5609 5603 5599 5593 5594 5596 5583 5586
5574 5581 5592 5593 5602 5608 5623 5633 5638 5639 5650 5659 5662 5664 5670 5673 5677 5680 5683 5686 5688 5693 5695 5696 5693 5685 5682 5675 5669 5663 5657 5651 5646 5641 5636 5632 5627 5621 5614 5608 5605 5605 5602 5598 5591 5591 5587 5584 5584
5565 5572 5579 5581 5586 5597 5602 5627 5637 5641 5643 5652 5656 5660 5659 5660 5665 5671 5677 5681 5684 5687 5688 5688 5689 5681 5676 5672 5666 5659 5650 5645 5641 5636 5634 5630 5627 5620 5613 5606 5603 5602 5599 5595 5595 5589 5590 5588 5581
5555 5568 5572 5571 5568 5579 5594 5612 5624 5637 5642 5645 5652 5651 5649 5652 5656 5661 5667 5674 5680 5682 5682 5683 5681 5678 5672 5668 5663 5658 5655 5648 5643 5637 5632 5628 5624 5618 5610 5605 5601 5601 5596 5593 5589 5586 5587 5586 5580
5556 5559 5564 5567 5563 5569 5584 5587 5612 5619 5630 5637 5642 5640 5638 5640 5644 5649 5657 5667 5676 5678 5678 5679 5676 5671 5668 5666 5662 5657 5649 5645 5637 5632 5627 5623 5617 5614 5608 5602 5596 5598 5593 5590 5588 5582 5583 5584 5579
5559 5554 5554 5553 5556 5559 5577 5588 5605 5612 5621 5628 5626 5628 5629 5631 5636 5646 5655 5664 5670 5668 5669 5669 5668 5666 5664 5661 5658 5654 5646 5643 5634 5629 5623 5619 5612 5608 5604 5600 5595 5595 5590 5589 5584 5583 5583 5583 5580
5553 5551 5545 5542 5545 5568 5577 5575 5606 5608 5611 5612 5616 5621 5622 5626 5632 5638 5645 5653 5659 5662 5659 5661 5660 5660 5658 5657 5653 5650 5645 5640 5631 5625 5619 5614 5608 5602 5601 5598 5595 5593 5592 5591 5586 5583 5583 5581 5581
5548 5556 5557 5549 5553 5567 5563 5574 5597 5601 5597 5602 5604 5607 5615 5621 5623 5631 5637 5641 5648 5656 5653 5654 5654 5653 5651 5650 5647 5644 5643 5637 5631 5625 5618 5611 5606 5600 5600 5597 5595 5591 5590 5588 5583 5582 5579 5579 5578
5540 5542 5557 5552 5550 5552 5570 5578 5588 5585 5587 5590 5592 5597 5603 5613 5618 5621 5627 5634 5640 5645 5646 5646 5645 5645 5645 5638 5640 5639 5640 5635 5630 5623 5614 5607 5603 5599 5598 5596 5594 5591 5587 5585 5581 5579 5578 5574 5572
5546 5547 5539 5539 5541 5547 5568 5570 5581 5579 5583 5586 5589 5591 5595 5599 5604 5610 5617 5628 5630 5634 5638 5638 5639 5639 5638 5632 5633 5634 5636 5630 5624 5619 5611 5606 5603 5598 5595 5594 5591 5589 5585 5580 5578 5575 5571 5571 5566
5533 5538 5543 5548 5548 5554 5555 5569 5576 5580 5582 5582 5583 5583 5582 5584 5590 5598 5609 5615 5618 5624 5632 5631 5632 5632 5632 5630 5630 5626 5628 5623 5619 5615 5608 5604 5602 5597 5595 5593 5588 5586 5582 5578 5575 5573 5572 5569 5565
5539 5540 5543 5541 5542 5548 5553 5562 5570 5569 5574 5573 5572 5574 5574 5572 5577 5582 5592 5596 5613 5624 5624 5625 5627 5626 5625 5628 5624 5621 5620 5615 5614 5611 5606 5602 5600 5593 5593 5591 5586 5584 5580 5577 5575 5572 5568 5566 5562